| time (UTC) | temp F | wind direction | speed knots | gust knots | rain 1hr in | rain 24hr in | rain mn in | humidity % | barometer mb |
| 20260505101957 | 70 | 180 | 3.5 | 12.2 | 0.00 | 0.00 | 0.00 | 90 | 1005.1 |
| 20260505100925 | 70 | 190 | 3.5 | 12.2 | 0.00 | 0.00 | 0.00 | 90 | 1005.0 |
| 20260505095906 | 70 | 217 | 3.5 | 12.2 | 0.00 | 0.00 | 0.00 | 89 | 1005.2 |
| 20260505094848 | 70 | 171 | 4.3 | 12.2 | 0.00 | 0.00 | 0.00 | 89 | 1005.1 |
| 20260505093829 | 70 | 207 | 3.5 | 12.2 | 0.00 | 0.00 | 0.00 | 89 | 1005.0 |
| 20260505092831 | 70 | 186 | 4.3 | 18.2 | 0.00 | 0.00 | 0.00 | 89 | 1005.1 |
| 20260505090713 | 70 | 182 | 3.5 | 14.8 | 0.00 | 0.00 | 0.00 | 88 | 1005.1 |
| 20260505085715 | 70 | 202 | 4.3 | 17.4 | 0.00 | 0.00 | 0.00 | 88 | 1005.1 |
| 20260505084720 | 70 | 195 | 4.3 | 17.4 | 0.00 | 0.00 | 0.00 | 88 | 1005.3 |
| 20260505083740 | 70 | 192 | 4.3 | 11.3 | 0.00 | 0.00 | 0.00 | 88 | 1005.3 |
| 20260505082747 | 70 | 202 | 4.3 | 17.4 | 0.00 | 0.00 | 0.00 | 89 | 1005.3 |
| 20260505081747 | 70 | 184 | 3.5 | 17.4 | 0.00 | 0.00 | 0.00 | 89 | 1005.6 |
| 20260505080754 | 70 | 174 | 5.2 | 19.1 | 0.00 | 0.00 | 0.00 | 89 | 1005.8 |
| 20260505075741 | 70 | 232 | 4.3 | 19.1 | 0.00 | 0.00 | 0.00 | 88 | 1005.7 |
| 20260505074804 | 70 | 186 | 3.5 | 14.8 | 0.00 | 0.00 | 0.00 | 88 | 1005.8 |
| 20260505072613 | 70 | 192 | 5.2 | 16.5 | 0.00 | 0.00 | 0.00 | 87 | 1006.2 |
| 20260505071541 | 70 | 202 | 4.3 | 16.5 | 0.00 | 0.00 | 0.00 | 87 | 1006.2 |
| 20260505070602 | 70 | 215 | 6.1 | 16.5 | 0.00 | 0.00 | 0.00 | 86 | 1006.3 |
| 20260505065553 | 71 | 204 | 5.2 | 16.5 | 0.00 | 0.00 | 0.00 | 86 | 1006.4 |
| 20260505064543 | 71 | 207 | 6.1 | 15.6 | 0.00 | 0.00 | 0.00 | 86 | 1006.6 |
| 20260505063554 | 71 | 196 | 4.3 | 14.8 | 0.00 | 0.00 | 0.00 | 86 | 1006.7 |
| 20260505062600 | 71 | 225 | 4.3 | 14.8 | 0.00 | 0.00 | 0.00 | 86 | 1006.9 |
| 20260505061601 | 71 | 193 | 5.2 | 14.8 | 0.00 | 0.00 | 0.00 | 86 | 1007.0 |
| 20260505060610 | 71 | 186 | 5.2 | 14.8 | 0.00 | 0.00 | 0.00 | 86 | 1007.1 |
| 20260505054458 | 71 | 205 | 5.2 | 16.5 | 0.00 | 0.00 | 0.00 | 86 | 1007.0 |
| 20260505053513 | 71 | 261 | 6.1 | 17.4 | 0.00 | 0.00 | 0.00 | 86 | 1007.0 |
| 20260505052446 | 71 | 175 | 5.2 | 17.4 | 0.00 | 0.00 | 0.00 | 86 | 1007.0 |
| 20260505051435 | 71 | 184 | 4.3 | 15.6 | 0.00 | 0.00 | 0.00 | 86 | 1006.9 |
| 20260505050454 | 71 | 195 | 6.1 | 15.6 | 0.00 | 0.00 | 0.00 | 86 | 1006.9 |
| 20260505033950 | 72 | 179 | 5.2 | 13.0 | 0.00 | 0.00 | 0.00 | 82 | 1006.9 |
| 20260505032950 | 73 | 202 | 4.3 | 10.4 | 0.00 | 0.00 | 0.00 | 81 | 1006.9 |
| 20260505031934 | 73 | 156 | 3.5 | 10.4 | 0.00 | 0.00 | 0.00 | 80 | 1006.9 |
| 20260505030954 | 73 | 173 | 4.3 | 10.4 | 0.00 | 0.00 | 0.00 | 79 | 1006.9 |
| 20260505025914 | 74 | 179 | 3.5 | 8.7 | 0.00 | 0.00 | 0.00 | 79 | 1007.1 |
| 20260505024845 | 74 | 116 | 4.3 | 10.4 | 0.00 | 0.00 | 0.00 | 78 | 1007.0 |
| 20260505023818 | 74 | 227 | 4.3 | 10.4 | 0.00 | 0.00 | 0.00 | 78 | 1007.1 |
| 20260505022743 | 75 | 189 | 3.5 | 10.4 | 0.00 | 0.00 | 0.00 | 77 | 1007.0 |
| 20260505021757 | 75 | 182 | 3.5 | 10.4 | 0.00 | 0.00 | 0.00 | 76 | 1007.0 |
| 20260505020811 | 75 | 215 | 3.5 | 10.4 | 0.00 | 0.00 | 0.00 | 76 | 1006.9 |
| 20260505015759 | 75 | 180 | 4.3 | 10.4 | 0.00 | 0.00 | 0.00 | 75 | 1006.8 |
| 20260505014755 | 75 | 174 | 2.6 | 7.8 | 0.00 | 0.00 | 0.00 | 74 | 1006.9 |
| 20260505013805 | 76 | 173 | 2.6 | 7.8 | 0.00 | 0.00 | 0.00 | 73 | 1006.8 |
| 20260505012747 | 76 | 184 | 2.6 | 7.8 | 0.00 | 0.00 | 0.00 | 72 | 1006.8 |
| 20260505011758 | 77 | 160 | 2.6 | 11.3 | 0.00 | 0.00 | 0.00 | 71 | 1006.7 |
| 20260505010811 | 77 | 162 | 3.5 | 13.0 | 0.00 | 0.00 | 0.00 | 69 | 1006.7 |
| 20260505005735 | 77 | 204 | 4.3 | 13.0 | 0.00 | 0.00 | 0.00 | 68 | 1006.6 |
| 20260505004709 | 78 | 211 | 5.2 | 11.3 | 0.00 | 0.00 | 0.00 | 67 | 1006.5 |
| 20260505003732 | 78 | 197 | 4.3 | 16.5 | 0.00 | 0.00 | 0.00 | 65 | 1006.5 |
| 20260505002708 | 79 | 186 | 6.1 | 16.5 | 0.00 | 0.00 | 0.00 | 64 | 1006.4 |
| 20260505001732 | 80 | 172 | 4.3 | 13.9 | 0.00 | 0.00 | 0.00 | 63 | 1006.4 |
| 20260505000728 | 80 | 174 | 6.1 | 13.9 | 0.00 | 0.00 | 0.00 | 63 | 1006.5 |
| 20260504235719 | 80 | 183 | 4.3 | 11.3 | 0.00 | 0.00 | 0.00 | 62 | 1006.7 |
| 20260504234728 | 80 | 207 | 5.2 | 13.9 | 0.00 | 0.00 | 0.00 | 62 | 1006.8 |
| 20260504233707 | 80 | 174 | 4.3 | 13.9 | 0.00 | 0.00 | 0.00 | 61 | 1006.9 |
| 20260504231541 | 81 | 180 | 6.1 | 14.8 | 0.00 | 0.00 | 0.00 | 61 | 1007.0 |
| 20260504230540 | 80 | 183 | 6.1 | 16.5 | 0.00 | 0.00 | 0.00 | 61 | 1007.0 |
| 20260504225513 | 81 | 197 | 6.1 | 16.5 | 0.00 | 0.00 | 0.00 | 59 | 1007.4 |
| 20260504223441 | 81 | 184 | 4.3 | 15.6 | 0.00 | 0.00 | 0.00 | 59 | 1007.6 |
| 20260504222445 | 81 | 220 | 6.1 | 15.6 | 0.00 | 0.00 | 0.00 | 60 | 1007.6 |
| 20260504221447 | 81 | 155 | 6.1 | 13.9 | 0.00 | 0.00 | 0.00 | 60 | 1007.7 |
| 20260504220509 | 82 | 207 | 5.2 | 20.0 | 0.00 | 0.00 | 0.00 | 60 | 1007.8 |
| 20260504215502 | 81 | 157 | 7.0 | 20.0 | 0.00 | 0.00 | 0.00 | 59 | 1007.8 |
| 20260504214442 | 82 | 180 | 6.1 | 16.5 | 0.00 | 0.00 | 0.00 | 60 | 1007.8 |
| 20260504213422 | 81 | 175 | 7.8 | 16.5 | 0.00 | 0.00 | 0.00 | 60 | 1007.9 |
| 20260504212433 | 81 | 164 | 6.1 | 15.6 | 0.00 | 0.00 | 0.00 | 59 | 1007.9 |
| 20260504210331 | 83 | 148 | 4.3 | 15.6 | 0.00 | 0.00 | 0.00 | 59 | 1008.3 |
| 20260504205328 | 82 | 163 | 7.0 | 17.4 | 0.00 | 0.00 | 0.00 | 58 | 1008.5 |
| 20260504204305 | 82 | 138 | 6.1 | 17.4 | 0.00 | 0.00 | 0.00 | 58 | 1008.6 |
| 20260504203308 | 82 | 225 | 6.1 | 12.2 | 0.00 | 0.00 | 0.00 | 59 | 1008.8 |
| 20260504202315 | 83 | 152 | 5.2 | 15.6 | 0.00 | 0.00 | 0.00 | 59 | 1009.0 |
| 20260504200114 | 82 | 207 | 7.0 | 13.0 | 0.00 | 0.00 | 0.00 | 58 | 1009.3 |
| 20260504195139 | 83 | 194 | 4.3 | 13.0 | 0.00 | 0.00 | 0.00 | 58 | 1009.5 |
| 20260504194134 | 82 | 162 | 4.3 | 14.8 | 0.00 | 0.00 | 0.00 | 59 | 1009.8 |
| 20260504193113 | 81 | 232 | 4.3 | 14.8 | 0.00 | 0.00 | 0.00 | 59 | 1009.8 |
| 20260504192114 | 80 | 192 | 3.5 | 17.4 | 0.00 | 0.00 | 0.00 | 63 | 1010.0 |
| 20260504191123 | 80 | 172 | 6.1 | 17.4 | 0.00 | 0.00 | 0.00 | 61 | 1010.2 |
| 20260504190148 | 79 | 174 | 5.2 | 14.8 | 0.00 | 0.00 | 0.00 | 62 | 1010.3 |
| 20260504185140 | 79 | 192 | 7.0 | 15.6 | 0.00 | 0.00 | 0.00 | 61 | 1010.3 |
| 20260504184114 | 79 | 213 | 6.1 | 15.6 | 0.00 | 0.00 | 0.00 | 61 | 1010.5 |
| 20260504181953 | 79 | 172 | 5.2 | 13.0 | 0.00 | 0.00 | 0.00 | 61 | 1010.9 |
| 20260504181003 | 78 | 196 | 4.3 | 13.0 | 0.00 | 0.00 | 0.00 | 63 | 1011.0 |
| 20260504180015 | 78 | 221 | 4.3 | 13.9 | 0.00 | 0.00 | 0.00 | 64 | 1011.1 |
| 20260504174950 | 78 | 195 | 5.2 | 16.5 | 0.00 | 0.00 | 0.00 | 63 | 1011.1 |
| 20260504173941 | 77 | 188 | 5.2 | 16.5 | 0.00 | 0.00 | 0.00 | 66 | 1011.3 |
| 20260504172956 | 77 | 182 | 5.2 | 14.8 | 0.00 | 0.00 | 0.00 | 66 | 1011.7 |
| 20260504171932 | 76 | 149 | 5.2 | 14.8 | 0.00 | 0.00 | 0.00 | 67 | 1011.9 |
| 20260504150437 | 69 | 209 | 4.3 | 11.3 | 0.00 | 0.00 | 0.00 | 77 | 1012.7 |
| 20260504141240 | 68 | 167 | 3.5 | 13.0 | 0.00 | 0.00 | 0.00 | 76 | 1012.6 |
| 20260504140259 | 67 | 140 | 5.2 | 13.0 | 0.00 | 0.00 | 0.00 | 77 | 1012.7 |